Regional Weather Roundup
Issued by NWS

Home | Current Version | Previous Version | Text Only | Print | Product List | Glossary Off
Versions: 1 2 3 4 5 6 7 8 9 10 11 12 13 14 15 16 17 18 19 20 21 22 23 24 25 26 27 28 29 30 31 32 33 34 35 36 37 38 39 40 41 42 43 44 45 46 47 48 49 50

000
ASUS43 KLSX 301607
RWRMO

WEATHER SUMMARY FOR MISSOURI
NATIONAL WEATHER SERVICE SPRINGFIELD MO
1000 AM CST FRI JAN 30 2015

NOTE: "FAIR" INDICATES FEW OR NO CLOUDS BELOW 12,000 FEET WITH NO
       SIGNIFICANT WEATHER AND/OR OBSTRUCTIONS TO VISIBILITY.
       CURRENT SKY AND/OR WEATHER CONDITIONS ARE NOT AVAILABLE FOR
       CHILLICOTHE AND FARMINGTON.

MOZ001>031-035>038-043-044-053-054-301700-
...NORTHERN AND WESTERN MISSOURI...

CITY           SKY/WX    TMP DP  RH WIND       PRES   REMARKS
KANSAS CTY INT CLOUDY    26  21  81 E5        30.55R WCI  20
KANSAS C DTWN  SUNNY     29  22  75 E6        30.56S WCI  23
LEE`S SUMMIT   FAIR      28  22  78 CALM      30.55R
ST JOSEPH      MOSUNNY   26  21  81 CALM      30.58R
CHILLICOTHE      N/A     27  19  72 E5        30.58S WCI  22
KIRKSVILLE     SUNNY     25  18  74 E6        30.56R WCI  18

$$
MOZ066>068-077>081-088>096-101>105-301700-
...SOUTHWEST MISSOURI...

CITY           SKY/WX    TMP DP  RH WIND       PRES   REMARKS
SPRINGFIELD    MOSUNNY   31  24  75 NE9       30.51S WCI  23
JOPLIN         PTSUNNY   31  26  82 NE6       30.55R WCI  25

$$
MOZ032>034-039>042-045>050-055>058-069>072-301700-
...CENTRAL MISSOURI...

CITY           SKY/WX    TMP DP  RH WIND       PRES   REMARKS
COLUMBIA       SUNNY     28  20  71 E7        30.55S WCI  21
JEFFERSON CITY SUNNY     29  19  66 NE7       30.57S WCI  22
ROLLA          MOSUNNY   29  21  72 NE5       30.51S WCI  24
SEDALIA        SUNNY     29  21  72 E9        30.55F WCI  20
WHITEMAN AFB   MOSUNNY   28  22  77 E7        30.54S WCI  21
WARRENSBURG    MOSUNNY   28  23  80 NE6       30.56R WCI  22
OSAGE BEACH    MOSUNNY   30  21  69 NE7       30.54F WCI  23

$$
MOZ051-052-059>065-301700-
...EAST CENTRAL MISSOURI...

CITY           SKY/WX    TMP DP  RH WIND       PRES   REMARKS
ST LOUIS INTL  MOSUNNY   32  17  54 NE6       30.56S WCI  26
SPIRIT OF STL  MOSUNNY   31  18  58 E5        30.56S WCI  26
ST CHARLES     SUNNY     32  18  56 NE9       30.56F WCI  24

$$
MOZ072>076-082>087-097>100-106>115-301700-
...SOUTH CENTRAL AND SOUTHEAST MISSOURI...

CITY           SKY/WX    TMP DP  RH WIND       PRES   REMARKS
CAPE GIRARDEAU SUNNY     35  23  61 N12       30.55R WCI  27
FARMINGTON     SUNNY     30  21  69 N8        30.56R WCI  23
POPLAR BLUFF   SUNNY     35  22  58 NE12      30.55R WCI  27
WEST PLAINS    SUNNY     33  22  63 N6        30.52R WCI  28

$$



USA.gov is the U.S. government's official web portal to all federal, state and local government web resources and services.